[[{"header":{"parameterUnit":"m.s-1","parameterCategory":1,"la1":30.2991,"la2":30.254,"lo1":-89.0895,"lo2":-89.0444,"dy":0.0017,"dx":0.0017,"nx":28,"ny":28,"refTime":"2026-01-29T09:00:00:Z","depth":0,"parameterNumber":2,"parameterNumberName":"U-component_of_WINDS"},"data":[0,0,0,0,0,0,0,0,0,0,0,0,0,0,0,0,0,0,0,0,0,0,0,0,0,0,0,0,0,0,0,0,0,0,0,0,0,0,0,0,0,0,0,0,0,0,0,0,0,0,0,0,0,0,0,0,0,0,-1.7874,-1.7874,0,-1.7909,-1.7909,-1.7909,-1.7893,-1.7892,-1.7892,-1.7891,-1.7927,-1.7929,-1.793,0,0,0,0,0,0,0,0,0,0,0,0,0,-1.7795,-1.7797,-1.7874,-1.7874,-1.7875,-1.7909,-1.7909,-1.7909,-1.7894,-1.7892,-1.7891,-1.789,-1.7926,-1.7928,-1.7931,0,0,0,0,0,0,0,0,0,0,0,0,0,-1.783,-1.7797,-1.7874,-1.7871,-1.7871,-1.7908,-1.7909,-1.791,-1.7894,-1.7892,-1.7891,-1.789,-1.7926,-1.7928,-1.7931,-1.7973,0,0,-1.7939,-1.794,0,0,0,0,0,0,0,0,-1.7828,-1.7833,-1.7871,-1.7871,-1.7871,-1.7895,-1.7895,-1.7931,-1.7894,-1.7885,-1.7891,-1.7889,-1.7917,-1.7921,-1.793,-1.7975,-1.7977,-1.7939,-1.7941,-1.7942,-1.7943,0,0,0,0,0,0,0,-1.7825,-1.7831,-1.7887,-1.7871,-1.7872,-1.7868,-1.7872,-1.7901,-1.7908,-1.7886,-1.7885,-1.7889,-1.7917,-1.7928,-1.7931,-1.7977,-1.7939,-1.7941,-1.7943,-1.7944,-1.806,-1.8062,0,0,0,0,0,0,-1.7823,-1.7829,-1.7886,-1.7889,-1.7846,-1.7871,-1.7875,-1.7889,-1.7908,-1.7909,-1.789,-1.7888,-1.7924,-1.7928,-1.7932,-1.7983,-1.7942,-1.7944,-1.7946,-1.8059,-1.8061,-1.8062,0,0,0,0,0,0,-1.7821,-1.7828,-1.7885,-1.7859,-1.7866,-1.7874,-1.789,-1.789,-1.79,-1.7911,-1.7912,-1.7899,-1.7923,-1.7928,-1.7963,-1.7984,-1.7946,-1.7948,-1.8057,-1.8059,-1.8061,-1.8086,0,0,0,0,0,0,-1.7819,-1.7828,-1.7843,-1.7859,-1.7867,-1.7915,-1.7891,-1.7892,-1.7905,-1.7903,-1.792,-1.7921,-1.7922,-1.796,-1.7966,-1.7987,-1.795,-1.8055,-1.8058,-1.8061,-1.8083,-1.8088,-1.8093,0,0,0,0,0,-1.7816,-1.7849,-1.7844,-1.7851,-1.7887,-1.7916,-1.7921,-1.7921,-1.7907,-1.7923,-1.793,-1.7921,-1.7982,-1.7963,-1.7971,-1.7993,-1.8054,-1.8057,-1.8061,-1.8081,-1.8087,-1.8093,0,0,0,0,0,0,-1.7834,-1.785,-1.7846,-1.7884,-1.7899,-1.7914,-1.7933,-1.7928,-1.7947,-1.7944,-1.7944,-1.7948,-1.7984,-1.7993,-1.7972,-1.8036,-1.8016,-1.8021,-1.8028,-1.8035,-1.804,-1.8036,-1.7952,0,0,0,0,0,-1.7843,-1.7865,-1.7878,-1.7911,-1.7919,-1.7925,-1.7938,-1.7937,-1.7953,-1.7959,-1.7969,-1.7984,-1.8007,-1.8022,-1.8043,-1.8085,-1.8089,-1.8104,-1.8109,-1.8113,-1.8117,-1.814,-1.8147,-1.8073,-1.8073,-1.8073,0,0,-1.786,-1.7872,-1.7886,-1.7915,-1.7926,-1.795,-1.793,-1.7956,-1.7974,-1.7963,-1.7996,-1.8005,-1.8022,-1.8061,-1.8079,-1.8069,-1.8139,-1.8118,-1.8121,-1.8122,-1.8144,-1.8151,-1.8157,-1.8076,-1.8075,-1.8075,0,0,-1.7904,-1.7915,-1.7943,-1.7956,-1.7974,-1.7978,-1.7986,-1.8002,-1.8007,-1.8041,-1.8033,-1.8055,-1.8094,-1.8107,-1.8119,-1.8171,-1.8163,-1.8178,-1.8203,-1.8226,-1.8232,-1.8237,-1.8255,-1.8261,-1.8182,-1.8182,-1.8182,0,-1.7923,-1.7958,-1.7959,-1.7985,-1.7998,-1.7991,-1.802,-1.8032,-1.8056,-1.8066,-1.8055,-1.8105,-1.8116,-1.8158,-1.8171,-1.8181,-1.8189,-1.8174,-1.8231,-1.8236,-1.8241,-1.8258,-1.8265,-1.8184,-1.8184,-1.8183,-1.8183,0,-1.798,-1.8005,-1.8026,-1.8049,-1.8065,-1.8093,-1.8099,-1.8115,-1.8114,-1.812,-1.8156,-1.817,-1.8194,-1.8205,-1.8203,-1.8247,-1.824,-1.8231,-1.821,-1.8249,-1.8265,-1.8272,-1.8186,-1.8185,-1.8185,-1.8185,0,0,-1.8032,-1.8058,-1.8066,-1.8077,-1.8098,-1.8117,-1.8146,-1.817,-1.8183,-1.8202,-1.8225,-1.826,-1.8251,-1.8265,-1.8266,-1.8286,-1.8326,-1.8274,-1.8274,-1.8282,-1.8375,-1.838,-1.8388,-1.8322,-1.8324,-1.8325,-1.8373,0,-1.8076,-1.8125,-1.8128,-1.8172,-1.8195,-1.819,-1.8215,-1.8231,-1.8238,-1.8259,-1.8268,-1.8292,-1.8279,-1.8287,-1.8308,-1.8317,-1.8344,-1.8314,-1.8344,-1.8345,-1.8337,-1.8396,-1.8402,-1.8446,-1.8379,-1.838,-1.8381,0,-1.8133,-1.8153,-1.8199,-1.8218,-1.8228,-1.825,-1.8273,-1.8294,-1.8313,-1.8317,-1.8333,-1.8332,-1.8362,-1.8343,-1.8384,-1.8363,-1.8377,-1.8383,-1.8385,-1.8386,-1.8363,-1.8397,-1.8461,-1.8467,-1.8391,-1.839,-1.8389,0,-1.8165,-1.8204,-1.8237,-1.8247,-1.827,-1.8286,-1.8296,-1.8314,-1.8329,-1.835,-1.8359,-1.8384,-1.8397,-1.8416,-1.8422,-1.8407,-1.8463,-1.8444,-1.8467,-1.8467,-1.8477,-1.8476,-1.8542,-1.8489,-1.8489,-1.8489,-1.8489,0,-1.8212,-1.824,-1.8252,-1.8271,-1.8304,-1.8308,-1.834,-1.835,-1.8366,-1.8389,-1.8387,-1.8408,-1.8416,-1.8439,-1.8444,-1.8477,-1.8484,-1.8488,-1.8488,-1.8487,-1.8486,-1.8493,-1.849,-1.8491,-1.849,-1.849,-1.8489,0,-1.8252,-1.8261,-1.8296,-1.8316,-1.8322,-1.8344,-1.8362,-1.8381,-1.839,-1.8418,-1.8425,-1.8438,-1.8465,-1.8474,-1.8506,-1.851,-1.8549,-1.8548,-1.8542,-1.8542,-1.8564,-1.8561,-1.8635,-1.8645,-1.8587,-1.8588,-1.8588,0,-1.828,-1.8302,-1.8325,-1.8339,-1.8351,-1.8375,-1.839,-1.8397,-1.8413,-1.8438,-1.8455,-1.8482,-1.8503,-1.8547,-1.856,-1.8585,-1.8583,-1.8608,-1.8587,-1.8585,-1.8582,-1.858,-1.8582,-1.8611,-1.8611,-1.8612,-1.8612,0,-1.8329,-1.8333,-1.8355,-1.838,-1.8398,-1.8418,-1.8436,-1.8449,-1.8459,-1.8478,-1.8505,-1.8522,-1.8556,-1.8583,-1.8609,-1.8621,-1.8618,-1.8619,-1.8626,-1.8623,-1.8618,-1.862,-1.8551,-1.8617,-1.8616,-1.8616,-1.8616,-1.8616,-1.8363,-1.8383,-1.8402,-1.8427,-1.8442,-1.846,-1.848,-1.8491,-1.8515,-1.8542,-1.8546,-1.8576,-1.8596,-1.8631,-1.8645,-1.8669,-1.8662,-1.8671,-1.8673,-1.8675,-1.8676,-1.8617,-1.8674,-1.8674,-1.8674,-1.8674,-1.8674,0,-1.8411,-1.8424,-1.8447,-1.8474,-1.8494,-1.8491,-1.8513,-1.853,-1.8556,-1.8575,-1.8597,-1.863,-1.8656,-1.8672,-1.8699,-1.8716,-1.8715,-1.8722,-1.872,-1.8723,-1.8681,-1.8672,-1.8722,-1.8722,-1.8722,-1.8722,-1.8722,-1.8722,-1.8438,-1.8471,-1.8477,-1.8518,-1.8531,-1.856,-1.8572,-1.859,-1.8605,-1.8641,-1.8664,-1.8674,-1.8692,-1.8721,-1.8746,-1.875,-1.8759,-1.8767,-1.877,-1.8731,-1.8726,-1.8721,-1.8712,-1.877,-1.877,-1.881,-1.881,-1.881]},{"header":{"parameterUnit":"m.s-1","parameterCategory":1,"la1":30.2991,"la2":30.254,"lo1":-89.0895,"lo2":-89.0444,"dy":0.0017,"dx":0.0017,"nx":28,"ny":28,"refTime":"2026-01-29T09:00:00:Z","depth":0,"parameterNumber":3,"parameterNumberName":"V-component_of_WINDS"},"data":[0,0,0,0,0,0,0,0,0,0,0,0,0,0,0,0,0,0,0,0,0,0,0,0,0,0,0,0,0,0,0,0,0,0,0,0,0,0,0,0,0,0,0,0,0,0,0,0,0,0,0,0,0,0,0,0,0,0,3.184,3.184,0,3.1883,3.1883,3.1884,3.1918,3.1918,3.1919,3.1919,3.196,3.1961,3.1961,0,0,0,0,0,0,0,0,0,0,0,0,0,3.1786,3.1787,3.184,3.184,3.1841,3.1883,3.1883,3.1884,3.1918,3.1918,3.1919,3.1919,3.196,3.1961,3.1962,0,0,0,0,0,0,0,0,0,0,0,0,0,3.1817,3.1787,3.184,3.1863,3.1866,3.1882,3.1883,3.1884,3.1918,3.1918,3.1919,3.1919,3.1959,3.1961,3.1962,3.1958,0,0,3.1965,3.1966,0,0,0,0,0,0,0,0,3.1815,3.1819,3.1859,3.1861,3.1864,3.1896,3.1879,3.1909,3.1918,3.1898,3.1919,3.192,3.1938,3.1941,3.1948,3.196,3.1962,3.1965,3.1966,3.1966,3.1967,0,0,0,0,0,0,0,3.1813,3.1817,3.1857,3.186,3.1863,3.1871,3.1876,3.1885,3.1914,3.19,3.1902,3.1907,3.1939,3.1946,3.1949,3.1962,3.1965,3.1966,3.1967,3.1967,3.1975,3.1975,0,0,0,0,0,0,3.1808,3.1815,3.1855,3.1858,3.1841,3.1871,3.1877,3.1885,3.1914,3.1919,3.1906,3.1908,3.1944,3.1947,3.195,3.1949,3.1966,3.1967,3.1968,3.1976,3.1975,3.1975,0,0,0,0,0,0,3.1806,3.1811,3.1854,3.1837,3.1843,3.1872,3.188,3.1885,3.1893,3.192,3.1925,3.1908,3.1945,3.1949,3.1956,3.1951,3.1968,3.1969,3.1976,3.1975,3.1975,3.1946,0,0,0,0,0,0,3.1805,3.181,3.1809,3.1837,3.1844,3.1859,3.188,3.1886,3.1895,3.1898,3.1923,3.1927,3.1945,3.1955,3.1958,3.1953,3.197,3.1977,3.1976,3.1975,3.1948,3.1945,3.1942,0,0,0,0,0,3.1802,3.1799,3.1809,3.1814,3.1844,3.1859,3.1863,3.1885,3.1894,3.1894,3.1911,3.1926,3.1951,3.1955,3.1959,3.1954,3.1977,3.1976,3.1975,3.1949,3.1945,3.1942,0,0,0,0,0,0,3.1768,3.1803,3.1815,3.182,3.1836,3.1865,3.1865,3.188,3.1893,3.1895,3.1921,3.1926,3.1931,3.1943,3.1947,3.1953,3.1966,3.1966,3.1945,3.1942,3.1939,3.1936,3.1971,0,0,0,0,0,3.1761,3.1771,3.1801,3.1802,3.181,3.1836,3.1843,3.1859,3.1876,3.1883,3.1901,3.1917,3.1929,3.1936,3.1948,3.1949,3.1956,3.1948,3.1945,3.1943,3.1942,3.1945,3.1943,3.1971,3.1971,3.1971,0,0,3.1747,3.1767,3.1772,3.1796,3.1811,3.182,3.1841,3.185,3.1858,3.1884,3.1893,3.1907,3.1927,3.1932,3.1935,3.1942,3.1936,3.1942,3.1939,3.194,3.1944,3.1941,3.1939,3.197,3.197,3.1971,0,0,3.1726,3.1742,3.1746,3.1761,3.1783,3.1801,3.1801,3.1828,3.1838,3.1848,3.1869,3.1877,3.1896,3.191,3.1919,3.1905,3.192,3.1908,3.1893,3.1895,3.1893,3.1891,3.1887,3.1885,3.1907,3.1907,3.1907,0,3.1705,3.1721,3.1746,3.1754,3.1764,3.179,3.1795,3.1807,3.1832,3.1838,3.1846,3.1872,3.1887,3.1896,3.1893,3.1899,3.1901,3.1905,3.1892,3.189,3.1889,3.1885,3.1883,3.1906,3.1906,3.1906,3.1906,0,3.1695,3.1706,3.1706,3.1731,3.1741,3.1747,3.1772,3.178,3.1795,3.1811,3.1821,3.184,3.1857,3.186,3.1874,3.1871,3.1875,3.1887,3.1901,3.1884,3.1881,3.188,3.1903,3.1904,3.1904,3.1905,0,0,3.1653,3.1693,3.1693,3.1705,3.1732,3.1741,3.1748,3.1766,3.1772,3.1788,3.1795,3.1811,3.1823,3.1834,3.1849,3.1851,3.184,3.1863,3.1864,3.1859,3.184,3.1832,3.183,3.185,3.185,3.185,3.1839,0,3.1638,3.1654,3.1676,3.1684,3.1695,3.1721,3.1727,3.1744,3.176,3.1771,3.1788,3.1799,3.1813,3.182,3.1823,3.1841,3.1837,3.1842,3.1857,3.1857,3.1852,3.1828,3.1819,3.1807,3.1838,3.1837,3.1837,0,3.1621,3.1638,3.1648,3.1676,3.1681,3.1686,3.1705,3.1715,3.1735,3.1747,3.1759,3.1777,3.1786,3.1798,3.1811,3.1814,3.1821,3.1831,3.1831,3.1834,3.1847,3.1831,3.1804,3.1803,3.1835,3.1836,3.1836,0,3.1592,3.1616,3.1626,3.1635,3.1667,3.1671,3.1684,3.1705,3.1715,3.1731,3.1737,3.1753,3.1762,3.1775,3.1796,3.1803,3.1807,3.182,3.1817,3.1816,3.1817,3.1817,3.1792,3.182,3.182,3.182,3.182,0,3.1572,3.1577,3.1613,3.1619,3.1625,3.1651,3.1657,3.1672,3.1691,3.17,3.1722,3.173,3.1757,3.1768,3.1785,3.1794,3.1797,3.1807,3.1811,3.1805,3.1804,3.1811,3.1812,3.182,3.182,3.182,3.182,0,3.154,3.1564,3.1576,3.1606,3.1614,3.1618,3.1643,3.165,3.1667,3.1678,3.1682,3.1709,3.1723,3.1746,3.1766,3.1778,3.1784,3.179,3.1777,3.178,3.1776,3.1776,3.1755,3.1754,3.1782,3.1781,3.1781,0,3.1527,3.1531,3.1563,3.1571,3.1584,3.1597,3.1607,3.1633,3.1643,3.1667,3.167,3.1687,3.1701,3.1723,3.1744,3.176,3.1768,3.1759,3.177,3.1764,3.1769,3.1769,3.177,3.1757,3.1756,3.1756,3.1756,0,3.15,3.1512,3.1527,3.1547,3.1559,3.1575,3.1592,3.1597,3.1626,3.1636,3.1652,3.1663,3.1685,3.1701,3.172,3.1733,3.175,3.1752,3.1752,3.1747,3.1739,3.1744,3.1771,3.1753,3.1753,3.1753,3.1753,3.1753,3.1478,3.1484,3.1508,3.1524,3.1539,3.1555,3.1563,3.1582,3.1596,3.1617,3.1631,3.1646,3.1666,3.1694,3.1706,3.1718,3.1725,3.1725,3.1725,3.1725,3.1723,3.1737,3.1722,3.1722,3.1722,3.1722,3.1722,0,3.1454,3.1471,3.1485,3.1509,3.1522,3.1537,3.1557,3.1566,3.158,3.1598,3.1613,3.1631,3.1647,3.1669,3.1687,3.1692,3.17,3.1696,3.1696,3.1699,3.1716,3.1714,3.1689,3.1689,3.1689,3.1689,3.1689,3.1689,3.1443,3.1455,3.147,3.1489,3.1506,3.1522,3.1532,3.1547,3.1562,3.1582,3.1596,3.1611,3.1631,3.165,3.1665,3.1672,3.1677,3.1671,3.168,3.1695,3.1698,3.1701,3.17,3.1672,3.1672,3.1663,3.1662,3.1662]}]]